This demonstration page uses our WeatherBlox Daily Observations layout. Learn more.

40.92945, -100.16068

Hourly Observations for December 25, 2016

Temp ( °F °C ) Dew Point ( °F °C ) Humidity (%) Winds ( mph kmh ) Pressure ( in mb ) Visibility ( mi km ) Precip ( " mm )
12:15 am 00:15 Partly Cloudy 32 0 30 -1 93 93 ESE 14 22 29.94 1014 7 11.26538 N/A
12:35 am 00:35 Cloudy with Mist and Fog 32 0.2 31 -0.6 94 94 ESE 12 19 29.94 1014 5 8.0467 N/A
12:55 am 00:55 Cloudy with Mist and Fog 33 0.5 32 -0.2 95 95 ESE 14 22 29.94 1014 4 6.43736 N/A
1:15 am 01:15 Cloudy with Mist and Fog 33 0.6 32 0 96 96 ESE 15 24 29.91 1013 1.25 2.011675 N/A
1:35 am 01:35 Cloudy with Fog 33 0.8 32 0 94 94 SE 16 26 29.94 1014 0.5 0.80467 N/A
1:55 am 01:55 Cloudy with Fog 33 0.8 32 0.1 95 95 ESE 12 19 29.91 1013 0.25 0.402335 N/A
2:15 am 02:15 Cloudy with Fog 34 1 32 0.2 94 94 ESE 13 20 29.91 1013 0.5 0.80467 N/A
2:35 am 02:35 Cloudy with Fog 33 0.8 32 0.1 95 95 ESE 13 20 29.91 1013 0.5 0.80467 N/A
2:55 am 02:55 Cloudy with Fog 33 0.8 32 0.1 95 95 ESE 10 17 29.88 1012 0.5 0.80467 N/A
3:15 am 03:15 Cloudy with Fog 34 1 32 0.2 94 94 SE 10 17 29.88 1012 0.25 0.402335 N/A
3:35 am 03:35 Cloudy with Fog 34 1.1 33 0.5 96 96 ESE 16 26 29.88 1012 0.25 0.402335 N/A
3:55 am 03:55 Cloudy with Fog 34 1.3 33 0.7 96 96 ESE 12 19 29.85 1011 0.25 0.402335 N/A
4:15 am 04:15 Cloudy with Fog 35 1.5 34 1 97 97 ESE 10 17 29.83 1010 0.25 0.402335 N/A
4:35 am 04:35 Cloudy with Fog 35 1.6 34 1 96 96 ESE 10 17 29.83 1010 0.25 0.402335 N/A
4:55 am 04:55 Cloudy with Fog 35 1.6 34 1 96 96 ESE 10 17 29.8 1009 0.25 0.402335 N/A
5:15 am 05:15 Cloudy with Fog 35 1.7 34 1.1 96 96 ESE 12 19 29.8 1009 0.5 0.80467 N/A
5:35 am 05:35 Cloudy with Fog 35 1.8 34 1.2 96 96 ESE 13 20 29.77 1008 0.5 0.80467 N/A
5:55 am 05:55 Cloudy with Fog 37 2.5 35 1.9 96 96 ESE 14 22 29.77 1008 0.5 0.80467 N/A
6:15 am 06:15 Cloudy with Mist and Fog 37 3 36 2.3 95 95 ESE 16 26 29.77 1008 0.75 1.207005 N/A
6:35 am 06:35 Cloudy with Mist and Fog 38 3.2 37 2.5 95 95 ESE 13 20 29.77 1008 0.75 1.207005 N/A
6:55 am 06:55 Cloudy with Mist and Fog 38 3.5 37 2.7 95 95 ESE 13 20 29.77 1008 0.75 1.207005 N/A
7:15 am 07:15 Cloudy with Mist and Fog 38 3.6 37 2.9 95 95 ESE 12 19 29.71 1006 0.75 1.207005 N/A
7:35 am 07:35 Cloudy with Light Snow 38 3.3 37 2.6 95 95 ESE 14 22 29.74 1007 0.75 1.207005 N/A
7:55 am 07:55 Cloudy with Light Rain 38 3.1 37 2.5 96 96 ESE 16 26 29.71 1006 3 4.82802 0.04 1.016
8:15 am 08:15 Cloudy with Light Rain 37 2.8 36 2.2 96 96 ESE 17 28 29.71 1006 1 1.60934 N/A
8:35 am 08:35 Cloudy with Light Rain 37 3 36 2.2 95 95 ESE 18 30 29.68 1005 0.5 0.80467 N/A
8:55 am 08:55 Cloudy with Light Rain 37 3 36 2.4 96 96 ESE 15 24 29.62 1003 0.5 0.80467 0.01 0.254
9:15 am 09:15 Cloudy with Light Rain 38 3.1 37 2.5 96 96 ESE 16 26 29.62 1003 1.5 2.41401 N/A
9:35 am 09:35 Cloudy with Mist and Fog 39 3.7 37 3 95 95 ESE 13 20 29.59 1002 1.5 2.41401 N/A
9:55 am 09:55 Cloudy with Light Rain 40 4.3 38 3.6 95 95 ESE 18 30 29.56 1001 0.75 1.207005 N/A
10:15 am 10:15 Cloudy with Mist and Fog 41 5 40 4.3 95 95 ESE 16 26 29.56 1001 1 1.60934 N/A
10:35 am 10:35 Cloudy with Nearby Thunderstorms 43 6.1 42 5.4 95 95 ESE 20 31 29.5 999 0.25 0.402335 N/A
10:55 am 10:55 Cloudy with Light Rain 44 6.8 43 6.1 95 95 ESE 17 28 29.47 998 0.25 0.402335 0.08 2.032
11:15 am 11:15 Cloudy 46 7.6 45 7 96 96 ESE 20 31 29.41 996 0.25 0.402335 N/A
11:35 am 11:35 Cloudy 46 8 46 7.5 97 97 SW 16 26 29.44 997 0.25 0.402335 0.14 3.556
11:55 am 11:55 Cloudy with Rain 48 9 47 8.2 95 95 SSE 5 7 29.41 996 2.5 4.02335 0.39 9.906
12:15 pm 12:15 Cloudy with Light Rain 48 9.1 47 8.5 96 96 ESE 5 7 29.41 996 10 16.0934 0.01 0.254
12:35 pm 12:35 Cloudy with Light Rain 51 10.6 50 10 96 96 S 15 24 29.35 994 10 16.0934 0.03 0.762
12:55 pm 12:55 Cloudy with Light Rain 50 10.1 49 9.2 94 94 SSE 10 17 29.35 994 10 16.0934 0.03 0.762
1:15 pm 13:15 Cloudy with Light Rain 51 10.5 44 6.8 78 78 SE 16 26 29.29 992 10 16.0934 0.01 0.254
1:35 pm 13:35 Cloudy 50 10 42 5.6 74 74 SE 17 28 29.23 990 10 16.0934 0.01 0.254
1:55 pm 13:55 Cloudy 50 10 41 4.8 70 70 SE 22 35 29.23 990 10 16.0934 0.01 0.254
2:15 pm 14:15 Mostly Cloudy 49 9.3 41 4.9 74 74 SSE 23 37 29.23 990 10 16.0934 N/A
2:35 pm 14:35 Partly Cloudy 50 9.8 42 5.6 75 75 SSE 25 41 29.23 990 10 16.0934 N/A
2:55 pm 14:55 Mostly Cloudy 51 10.5 42 5.8 73 73 S 24 39 29.23 990 10 16.0934 0 0
3:15 pm 15:15 Partly Cloudy 51 10.6 42 5.8 72 72 S 25 41 29.21 989 10 16.0934 N/A
3:35 pm 15:35 Sunny 51 10.6 42 5.8 72 72 S 23 37 29.21 989 10 16.0934 N/A
3:55 pm 15:55 Sunny 51 10.8 38 3.3 60 60 S 23 37 29.21 989 10 16.0934 N/A
4:15 pm 16:15 Sunny 51 10.4 26 -3.1 39 39 S 30 48 29.21 989 10 16.0934 N/A
4:35 pm 16:35 Sunny 49 9.6 25 -3.8 39 39 S 24 39 29.18 988 10 16.0934 N/A
4:55 pm 16:55 Partly Cloudy 48 9.1 25 -4 40 40 S 20 31 29.15 987 10 16.0934 N/A
5:15 pm 17:15 Sunny 47 8.6 23 -4.8 39 39 S 28 44 29.12 986 10 16.0934 N/A
5:35 pm 17:35 Clear 46 8 32 0 57 57 SSW 40 65 29.15 987 10 16.0934 N/A
5:55 pm 17:55 Clear 36 2.4 27 -3 68 68 SW 39 63 29.21 989 10 16.0934 0 0
6:15 pm 18:15 Partly Cloudy 33 0.6 24 -4.5 69 69 WSW 37 59 29.32 993 10 16.0934 N/A
6:35 pm 18:35 Partly Cloudy 31 -0.4 22 -5.6 68 68 W 48 78 29.44 997 10 16.0934 N/A
6:55 pm 18:55 Partly Cloudy 31 -0.5 22 -5.7 68 68 W 33 54 29.47 998 10 16.0934 N/A
7:15 pm 19:15 Partly Cloudy 30 -1.1 20 -6.5 67 67 W 36 57 29.53 1000 10 16.0934 N/A
7:35 pm 19:35 Clear 29 -1.6 19 -7.5 64 64 W 38 61 29.59 1002 10 16.0934 N/A
7:55 pm 19:55 Clear 28 -2.5 17 -8.1 66 66 W 30 48 29.65 1004 10 16.0934 N/A
8:15 pm 20:15 Clear 27 -2.6 18 -8 67 67 W 21 33 29.68 1005 10 16.0934 N/A
8:35 pm 20:35 Clear 27 -3 17 -8.4 67 67 W 28 44 29.68 1005 10 16.0934 N/A
8:55 pm 20:55 Partly Cloudy 26 -3.3 17 -8.6 67 67 W 22 35 29.68 1005 10 16.0934 N/A
9:15 pm 21:15 Partly Cloudy 26 -3.6 17 -8.6 69 69 W 20 31 29.74 1007 10 16.0934 N/A
9:35 pm 21:35 Clear 26 -3.6 17 -8.6 69 69 W 17 28 29.74 1007 10 16.0934 N/A
9:55 pm 21:55 Clear 25 -3.9 16 -8.8 69 69 W 18 30 29.77 1008 10 16.0934 N/A
10:15 pm 22:15 Clear 25 -3.8 15 -9.3 66 66 W 21 33 29.77 1008 10 16.0934 N/A
10:35 pm 22:35 Clear 26 -3.6 15 -9.5 64 64 W 20 31 29.8 1009 10 16.0934 N/A
10:55 pm 22:55 Clear 26 -3.5 13 -10.7 58 58 WNW 23 37 29.83 1010 10 16.0934 N/A
11:15 pm 23:15 Clear 26 -3.5 12 -11 56 56 WNW 21 33 29.83 1010 10 16.0934 N/A
11:35 pm 23:35 Clear 25 -3.9 12 -10.9 59 59 W 22 35 29.83 1010 10 16.0934 N/A
11:55 pm 23:55 Clear 25 -3.7 11 -11.6 55 55 WNW 21 33 29.85 1011 10 16.0934 N/A

Powered by AerisWeather